ITF-2 (41932 NORAD) Tracking and Keplerian Element Data

This shows tracking and keplerian element data for the satellite.

Feedback or suggestion? Click here.




ElementValue
Catalog41932
NameITF-2
Epoch Orbit9626
Epoch Day266.22483159
Epoch Year2018
RAAN192.9937
Inclination51.629
Eccentricity0.0002825
Argument of Perigee174.2593
Mean Anonmoly185.8443
Mean Motion15.84253587
Decay Rate0.0009598
L11 41932U 98067KU 18266.22483159 .00095980 00000-0 41276-3 0 9990
L22 41932 51.6290 192.9937 0002825 174.2593 185.8443 15.84253587 96266

Live tracking and technical data element details for ITF-2 (NORAD 41932). ITF-2 can be tracked NOW for your location showing map with azimuth and elevation plus other details from your city location.

Track the satellite on the map from your city or location and see movement details for azimuth, elevation, latitude, longitude, range, height, and movement on the map or in text.







IsCatalogInMostPopularTable: catalog: 41932, numindb: 104
Update: records affected: 1



GetName: 41932 ITF-2

Hit Count: updated at: Tue, 25 Sep 2018 14:33:13 GMT